Skip Page Navigation
NASA JPL Caltech
NASA Logo - Jet Propulsion Laboratory + View the NASA Portal
+ Center for Near-Earth Object Studies
JPL Home Earth Solar System Stars & Galaxies Technology
JPL Solar System Dynamics
BODIES ORBITS EPHEMERIDES TOOLS PHYSICAL DATA DISCOVERY FAQ SITE MAP
JPL Small-Body Database Browser
Search: [ help ]  
487073 (2014 OL100)
Classification: Main-belt Asteroid          SPK-ID: 2487073
Ephemeris | Orbit Diagram | Orbital Elements | Mission Design | Physical Parameters | Discovery Circumstances ]

[ show orbit diagram ]
Orbital Elements at Epoch 2459000.5 (2020-May-31.0) TDB
Reference: JPL 14 (heliocentric ecliptic J2000)
 Element Value Uncertainty (1-sigma)   Units 
e .05619059290741591 7.6134e-08  
a 3.05705385200239 5.7405e-08 au
q 2.885276183508476 2.4259e-07 au
i 11.51241527685669 7.7245e-06 deg
node 143.7312168286489 3.7966e-05 deg
peri 269.7497493433547 0.00010376 deg
M 318.1809583838353 8.9319e-05 deg
tp 2459227.290383582993
(2021-Jan-12.79038358)
0.00048286 TDB
period 1952.329248461745
5.35
5.4991e-05
1.506e-07
d
yr
n .1843951271455092 5.1939e-09 deg/d
Q 3.228831520496304 6.0631e-08 au
  Orbit Determination Parameters
   # obs. used (total)      67  
   data-arc span      5376 days (14.72 yr)  
   first obs. used      2006-02-04  
   last obs. used      2020-10-24  
   planetary ephem.      DE431  
   SB-pert. ephem.      SB431-N16  
   condition code      0  
   norm. resid. RMS      .72811  
   source      ORB  
   producer      Otto Matic  
   solution date      2020-Nov-12 02:29:16  

Additional Information
 Earth MOID = 1.92586 au 
 Jupiter MOID = 1.98704 au 
 T_jup = 3.202 
[ show covariance matrix ]

Ephemeris | Orbit Diagram | Orbital Elements | Mission Design | Physical Parameters | Discovery Circumstances ]

Physical Parameter Table
Parameter Symbol Value Units Sigma Reference Notes
absolute magnitude H 16.7   n/a MPO456347  

487073 (2014 OL100)          Discovered 2014-Jul-07 by Pan-STARRS 1 at Haleakala
Reference: Last Updated: 2017-03-14
Ephemeris | Orbit Diagram | Orbital Elements | Mission Design | Physical Parameters | Discovery Circumstances ]
ABOUT SSD CREDITS/AWARDS PRIVACY/COPYRIGHT GLOSSARY LINKS
FirstGov 2020-Nov-30 17:47 UT
(server date/time)  
NASA Home Page
Site Manager:   Ryan S. Park
Webmaster  Alan B. Chamberlin